����������;��������(kVARh)
2019-05-27 00:00;0
2019-05-27 00:15;0,2
2019-05-27 00:30;0,15
2019-05-27 00:45;0,2
2019-05-27 01:00;0,85
2019-05-27 01:15;2
2019-05-27 01:30;2,65
2019-05-27 01:45;0,8
2019-05-27 02:00;0
2019-05-27 02:15;0
2019-05-27 02:30;0
2019-05-27 02:45;0
2019-05-27 03:00;0
2019-05-27 03:15;0,15
2019-05-27 03:30;0
2019-05-27 03:45;0
2019-05-27 04:00;0
2019-05-27 04:15;0
2019-05-27 04:30;0
2019-05-27 04:45;0,2
2019-05-27 05:00;0
2019-05-27 05:15;0
2019-05-27 05:30;0,05
2019-05-27 05:45;0
2019-05-27 06:00;0
2019-05-27 06:15;0
2019-05-27 06:30;0
2019-05-27 06:45;0
2019-05-27 07:00;0
2019-05-27 07:15;0
2019-05-27 07:30;0
2019-05-27 07:45;3,25
2019-05-27 08:00;3,4
2019-05-27 08:15;3
2019-05-27 08:30;6,1
2019-05-27 08:45;9,35
2019-05-27 09:00;9,35
2019-05-27 09:15;10,45
2019-05-27 09:30;11,9
2019-05-27 09:45;14,4
2019-05-27 10:00;14,15
2019-05-27 10:15;14,75
2019-05-27 10:30;14,4
2019-05-27 10:45;17,25
2019-05-27 11:00;18,4
2019-05-27 11:15;23,5
2019-05-27 11:30;24,75
2019-05-27 11:45;23,85
2019-05-27 12:00;26,8
2019-05-27 12:15;27,05
2019-05-27 12:30;25,75
2019-05-27 12:45;28,85
2019-05-27 13:00;26,95
2019-05-27 13:15;26,9
2019-05-27 13:30;27,55
2019-05-27 13:45;26,2
2019-05-27 14:00;25,3
2019-05-27 14:15;25,15
2019-05-27 14:30;22,4
2019-05-27 14:45;21,85
2019-05-27 15:00;22,7
2019-05-27 15:15;22,75
2019-05-27 15:30;19,15
2019-05-27 15:45;19,45
2019-05-27 16:00;18
2019-05-27 16:15;15,2
2019-05-27 16:30;17,15
2019-05-27 16:45;14,45
2019-05-27 17:00;14,9
2019-05-27 17:15;15,5
2019-05-27 17:30;12,3
2019-05-27 17:45;12,65
2019-05-27 18:00;11,4
2019-05-27 18:15;9,75
2019-05-27 18:30;9,7
2019-05-27 18:45;10,7
2019-05-27 19:00;9,35
2019-05-27 19:15;11,15
2019-05-27 19:30;14,1
2019-05-27 19:45;13
2019-05-27 20:00;11,9
2019-05-27 20:15;10,55
2019-05-27 20:30;9,25
2019-05-27 20:45;8
2019-05-27 21:00;7,1
2019-05-27 21:15;9,25
2019-05-27 21:30;9,65
2019-05-27 21:45;5,9
2019-05-27 22:00;5,2
2019-05-27 22:15;4,1
2019-05-27 22:30;4,95
2019-05-27 22:45;6,75
2019-05-27 23:00;6,4
2019-05-27 23:15;7,4
2019-05-27 23:30;7,7
2019-05-27 23:45;5,95
2019-05-28 00:00;2,8
2019-05-28 00:15;5,6
2019-05-28 00:30;4,8
2019-05-28 00:45;6,1
2019-05-28 01:00;6,4
2019-05-28 01:15;6,35
2019-05-28 01:30;1,9
2019-05-28 01:45;2,85
2019-05-28 02:00;2,4
2019-05-28 02:15;1,4
2019-05-28 02:30;0,55
2019-05-28 02:45;0,7
2019-05-28 03:00;0,6
2019-05-28 03:15;1,85
2019-05-28 03:30;1,55
2019-05-28 03:45;0,85
2019-05-28 04:00;1,05
2019-05-28 04:15;0,5
2019-05-28 04:30;0,2
2019-05-28 04:45;0,65
2019-05-28 05:00;0,35
2019-05-28 05:15;0,2
2019-05-28 05:30;0
2019-05-28 05:45;0
2019-05-28 06:00;0,05
2019-05-28 06:15;0,1
2019-05-28 06:30;0
2019-05-28 06:45;0
2019-05-28 07:00;0
2019-05-28 07:15;0,1
2019-05-28 07:30;2,3
2019-05-28 07:45;0,2
2019-05-28 08:00;0
2019-05-28 08:15;2,05
2019-05-28 08:30;2,65
2019-05-28 08:45;6,75
2019-05-28 09:00;10,55
2019-05-28 09:15;10,7
2019-05-28 09:30;11,1
2019-05-28 09:45;15,05
2019-05-28 10:00;39,55
2019-05-28 10:15;36,55
2019-05-28 10:30;25,25
2019-05-28 10:45;26
2019-05-28 11:00;29,2
2019-05-28 11:15;35,4
2019-05-28 11:30;24,1
2019-05-28 11:45;38,9
2019-05-28 12:00;24,8
2019-05-28 12:15;32,45
2019-05-28 12:30;30,3
2019-05-28 12:45;39,1
2019-05-28 13:00;24,2
2019-05-28 13:15;32,1
2019-05-28 13:30;27,3
2019-05-28 13:45;25,95
2019-05-28 14:00;26,4
2019-05-28 14:15;28,25
2019-05-28 14:30;32,9
2019-05-28 14:45;24,4
2019-05-28 15:00;27,25
2019-05-28 15:15;26,35
2019-05-28 15:30;21,85
2019-05-28 15:45;19,85
2019-05-28 16:00;18,1
2019-05-28 16:15;26,95
2019-05-28 16:30;13,95
2019-05-28 16:45;19,3
2019-05-28 17:00;13,4
2019-05-28 17:15;29,4
2019-05-28 17:30;14
2019-05-28 17:45;19,7
2019-05-28 18:00;14
2019-05-28 18:15;25,6
2019-05-28 18:30;11,55
2019-05-28 18:45;3,15
2019-05-28 19:00;6,8
2019-05-28 19:15;9,45
2019-05-28 19:30;9,3
2019-05-28 19:45;8,2
2019-05-28 20:00;6,45
2019-05-28 20:15;5,15
2019-05-28 20:30;6,05
2019-05-28 20:45;5,4
2019-05-28 21:00;6,15
2019-05-28 21:15;5,95
2019-05-28 21:30;6,1
2019-05-28 21:45;5,9
2019-05-28 22:00;4,4
2019-05-28 22:15;4,25
2019-05-28 22:30;3,5
2019-05-28 22:45;2,4
2019-05-28 23:00;5,55
2019-05-28 23:15;8,05
2019-05-28 23:30;8,3
2019-05-28 23:45;9,4
2019-05-29 00:00;10,3
2019-05-29 00:15;10,45
2019-05-29 00:30;5
2019-05-29 00:45;1,8
2019-05-29 01:00;2,6
2019-05-29 01:15;2,7
2019-05-29 01:30;2,45
2019-05-29 01:45;0,6
2019-05-29 02:00;0
2019-05-29 02:15;0
2019-05-29 02:30;0
2019-05-29 02:45;0,1
2019-05-29 03:00;0
2019-05-29 03:15;0
2019-05-29 03:30;0
2019-05-29 03:45;0,05
2019-05-29 04:00;0,05
2019-05-29 04:15;0,55
2019-05-29 04:30;0,3
2019-05-29 04:45;0,15
2019-05-29 05:00;0,1
2019-05-29 05:15;0
2019-05-29 05:30;0
2019-05-29 05:45;0
2019-05-29 06:00;0
2019-05-29 06:15;0
2019-05-29 06:30;0
2019-05-29 06:45;0
2019-05-29 07:00;0
2019-05-29 07:15;0
2019-05-29 07:30;20,65
2019-05-29 07:45;0,8
2019-05-29 08:00;0
2019-05-29 08:15;1,3
2019-05-29 08:30;9,45
2019-05-29 08:45;11,4
2019-05-29 09:00;18,35
2019-05-29 09:15;17,7
2019-05-29 09:30;18,4
2019-05-29 09:45;22,15
2019-05-29 10:00;22,05
2019-05-29 10:15;26,95
2019-05-29 10:30;25,15
2019-05-29 10:45;25,5
2019-05-29 11:00;22,05
2019-05-29 11:15;23,3
2019-05-29 11:30;24,05
2019-05-29 11:45;23,6
2019-05-29 12:00;28,75
2019-05-29 12:15;25,25
2019-05-29 12:30;28
2019-05-29 12:45;29,8
2019-05-29 13:00;28,1
2019-05-29 13:15;24,3
2019-05-29 13:30;22,75
2019-05-29 13:45;25,3
2019-05-29 14:00;24,45
2019-05-29 14:15;24,8
2019-05-29 14:30;22,2
2019-05-29 14:45;26,25
2019-05-29 15:00;21,15
2019-05-29 15:15;20,3
2019-05-29 15:30;18,85
2019-05-29 15:45;25,45
2019-05-29 16:00;22,5
2019-05-29 16:15;21,4
2019-05-29 16:30;19,85
2019-05-29 16:45;23,55
2019-05-29 17:00;18,55
2019-05-29 17:15;19,1
2019-05-29 17:30;10,55
2019-05-29 17:45;10,3
2019-05-29 18:00;12,3
2019-05-29 18:15;13,55
2019-05-29 18:30;14,45
2019-05-29 18:45;14,65
2019-05-29 19:00;16,05
2019-05-29 19:15;14,2
2019-05-29 19:30;12,85
2019-05-29 19:45;14,05
2019-05-29 20:00;16,2
2019-05-29 20:15;14,35
2019-05-29 20:30;13
2019-05-29 20:45;11,35
2019-05-29 21:00;9,9
2019-05-29 21:15;9,55
2019-05-29 21:30;11,5
2019-05-29 21:45;9,05
2019-05-29 22:00;7,15
2019-05-29 22:15;5,75
2019-05-29 22:30;6,6
2019-05-29 22:45;7,6
2019-05-29 23:00;9,65
2019-05-29 23:15;7,35
2019-05-29 23:30;7,15
2019-05-29 23:45;6,6
2019-05-30 00:00;6,4
2019-05-30 00:15;2,05
2019-05-30 00:30;1,4
2019-05-30 00:45;1,95
2019-05-30 01:00;0
2019-05-30 01:15;0
2019-05-30 01:30;0
2019-05-30 01:45;0
2019-05-30 02:00;0
2019-05-30 02:15;0
2019-05-30 02:30;0
2019-05-30 02:45;0
2019-05-30 03:00;0
2019-05-30 03:15;0
2019-05-30 03:30;0
2019-05-30 03:45;0
2019-05-30 04:00;0
2019-05-30 04:15;0
2019-05-30 04:30;0
2019-05-30 04:45;0
2019-05-30 05:00;0
2019-05-30 05:15;0
2019-05-30 05:30;0
2019-05-30 05:45;0
2019-05-30 06:00;0
2019-05-30 06:15;0
2019-05-30 06:30;0
2019-05-30 06:45;0
2019-05-30 07:00;0
2019-05-30 07:15;0
2019-05-30 07:30;17,55
2019-05-30 07:45;3,7
2019-05-30 08:00;4,3
2019-05-30 08:15;6,35
2019-05-30 08:30;7,25
2019-05-30 08:45;7,65
2019-05-30 09:00;14,55
2019-05-30 09:15;14,8
2019-05-30 09:30;17,15
2019-05-30 09:45;17,9
2019-05-30 10:00;18,3
2019-05-30 10:15;23,6
2019-05-30 10:30;21,5
2019-05-30 10:45;22,65
2019-05-30 11:00;23,1
2019-05-30 11:15;26,85
2019-05-30 11:30;22,2
2019-05-30 11:45;25,55
2019-05-30 12:00;27
2019-05-30 12:15;30,05
2019-05-30 12:30;31,9
2019-05-30 12:45;29,45
2019-05-30 13:00;35,9
2019-05-30 13:15;29,1
2019-05-30 13:30;31,25
2019-05-30 13:45;28,5
2019-05-30 14:00;34,15
2019-05-30 14:15;28,65
2019-05-30 14:30;25,6
2019-05-30 14:45;22,75
2019-05-30 15:00;26,2
2019-05-30 15:15;24,2
2019-05-30 15:30;25,3
2019-05-30 15:45;24,35
2019-05-30 16:00;13,65
2019-05-30 16:15;17,6
2019-05-30 16:30;12,35
2019-05-30 16:45;13,8
2019-05-30 17:00;11,7
2019-05-30 17:15;13
2019-05-30 17:30;14,55
2019-05-30 17:45;10,2
2019-05-30 18:00;12,8
2019-05-30 18:15;8,1
2019-05-30 18:30;11,4
2019-05-30 18:45;10,15
2019-05-30 19:00;9,55
2019-05-30 19:15;9,6
2019-05-30 19:30;9,3
2019-05-30 19:45;9,25
2019-05-30 20:00;9,95
2019-05-30 20:15;16,65
2019-05-30 20:30;17,3
2019-05-30 20:45;15,7
2019-05-30 21:00;15,85
2019-05-30 21:15;16,9
2019-05-30 21:30;17,55
2019-05-30 21:45;12,15
2019-05-30 22:00;8
2019-05-30 22:15;5,9
2019-05-30 22:30;5,5
2019-05-30 22:45;4,35
2019-05-30 23:00;4,55
2019-05-30 23:15;4
2019-05-30 23:30;0,9
2019-05-30 23:45;0
2019-05-31 00:00;0
2019-05-31 00:15;0,2
2019-05-31 00:30;0,1
2019-05-31 00:45;0,05
2019-05-31 01:00;0
2019-05-31 01:15;0,2
2019-05-31 01:30;0
2019-05-31 01:45;0
2019-05-31 02:00;0
2019-05-31 02:15;0,05
2019-05-31 02:30;0
2019-05-31 02:45;0
2019-05-31 03:00;0
2019-05-31 03:15;0
2019-05-31 03:30;0,1
2019-05-31 03:45;0
2019-05-31 04:00;0
2019-05-31 04:15;0
2019-05-31 04:30;0
2019-05-31 04:45;0
2019-05-31 05:00;0
2019-05-31 05:15;0
2019-05-31 05:30;0,2
2019-05-31 05:45;0,05
2019-05-31 06:00;0
2019-05-31 06:15;0
2019-05-31 06:30;0
2019-05-31 06:45;0
2019-05-31 07:00;0,05
2019-05-31 07:15;0
2019-05-31 07:30;23,4
2019-05-31 07:45;3,35
2019-05-31 08:00;4,55
2019-05-31 08:15;8,8
2019-05-31 08:30;7,75
2019-05-31 08:45;16,75
2019-05-31 09:00;17
2019-05-31 09:15;19,25
2019-05-31 09:30;18,45
2019-05-31 09:45;25,35
2019-05-31 10:00;20,7
2019-05-31 10:15;14,4
2019-05-31 10:30;22,45
2019-05-31 10:45;18,95
2019-05-31 11:00;23,05
2019-05-31 11:15;26,15
2019-05-31 11:30;27,65
2019-05-31 11:45;23,05
2019-05-31 12:00;22,3
2019-05-31 12:15;32,4
2019-05-31 12:30;22,75
2019-05-31 12:45;24,55
2019-05-31 13:00;22,8
2019-05-31 13:15;25,95
2019-05-31 13:30;22,75
2019-05-31 13:45;24,6
2019-05-31 14:00;19,8
2019-05-31 14:15;22,75
2019-05-31 14:30;20
2019-05-31 14:45;29,35
2019-05-31 15:00;29,15
2019-05-31 15:15;19,25
2019-05-31 15:30;22,5
2019-05-31 15:45;22,65
2019-05-31 16:00;17,65
2019-05-31 16:15;20,15
2019-05-31 16:30;17,9
2019-05-31 16:45;20,8
2019-05-31 17:00;12,55
2019-05-31 17:15;13,9
2019-05-31 17:30;10,95
2019-05-31 17:45;22,3
2019-05-31 18:00;12,8
2019-05-31 18:15;11,45
2019-05-31 18:30;13,2
2019-05-31 18:45;8,7
2019-05-31 19:00;6,35
2019-05-31 19:15;5,5
2019-05-31 19:30;6,1
2019-05-31 19:45;7,3
2019-05-31 20:00;5,5
2019-05-31 20:15;6,1
2019-05-31 20:30;10,9
2019-05-31 20:45;12,05
2019-05-31 21:00;11,15
2019-05-31 21:15;11,1
2019-05-31 21:30;11,15
2019-05-31 21:45;10,95
2019-05-31 22:00;9,45
2019-05-31 22:15;12,5
2019-05-31 22:30;12,65
2019-05-31 22:45;12,6
2019-05-31 23:00;15,55
2019-05-31 23:15;13,2
2019-05-31 23:30;13,8
2019-05-31 23:45;15,7
2019-06-01 00:00;13,95
2019-06-01 00:15;3,8
2019-06-01 00:30;0,8
2019-06-01 00:45;0,1
2019-06-01 01:00;1,7
2019-06-01 01:15;1,2
2019-06-01 01:30;0,85
2019-06-01 01:45;0,3
2019-06-01 02:00;1,35
2019-06-01 02:15;1,25
2019-06-01 02:30;1,6
2019-06-01 02:45;2,75
2019-06-01 03:00;2,5
2019-06-01 03:15;1,35
2019-06-01 03:30;1,7
2019-06-01 03:45;0,65
2019-06-01 04:00;0,1
2019-06-01 04:15;0,05
2019-06-01 04:30;0,4
2019-06-01 04:45;0
2019-06-01 05:00;0,15
2019-06-01 05:15;0,1
2019-06-01 05:30;0
2019-06-01 05:45;0,1
2019-06-01 06:00;0,8
2019-06-01 06:15;0
2019-06-01 06:30;0
2019-06-01 06:45;0
2019-06-01 07:00;0
2019-06-01 07:15;0
2019-06-01 07:30;0
2019-06-01 07:45;0
2019-06-01 08:00;0
2019-06-01 08:15;0
2019-06-01 08:30;0,2
2019-06-01 08:45;1,35
2019-06-01 09:00;1,1
2019-06-01 09:15;0,9
2019-06-01 09:30;2,35
2019-06-01 09:45;2
2019-06-01 10:00;2,4
2019-06-01 10:15;5
2019-06-01 10:30;3,3
2019-06-01 10:45;3,65
2019-06-01 11:00;5,15
2019-06-01 11:15;5,25
2019-06-01 11:30;5,4
2019-06-01 11:45;5,55
2019-06-01 12:00;4,25
2019-06-01 12:15;2,8
2019-06-01 12:30;3,25
2019-06-01 12:45;1,75
2019-06-01 13:00;2,85
2019-06-01 13:15;1,85
2019-06-01 13:30;2,5
2019-06-01 13:45;2,2
2019-06-01 14:00;2,1
2019-06-01 14:15;2,7
2019-06-01 14:30;6,3
2019-06-01 14:45;9,35
2019-06-01 15:00;9,1
2019-06-01 15:15;9,55
2019-06-01 15:30;10,7
2019-06-01 15:45;7,25
2019-06-01 16:00;8,6
2019-06-01 16:15;7,85
2019-06-01 16:30;7,65
2019-06-01 16:45;7,85
2019-06-01 17:00;7,5
2019-06-01 17:15;7,4
2019-06-01 17:30;7,2
2019-06-01 17:45;7,55
2019-06-01 18:00;7,5
2019-06-01 18:15;7,2
2019-06-01 18:30;11,2
2019-06-01 18:45;11,4
2019-06-01 19:00;13,75
2019-06-01 19:15;14,65
2019-06-01 19:30;14,3
2019-06-01 19:45;15,2
2019-06-01 20:00;15,3
2019-06-01 20:15;15,45
2019-06-01 20:30;15,25
2019-06-01 20:45;14,3
2019-06-01 21:00;14,6
2019-06-01 21:15;12,3
2019-06-01 21:30;11,5
2019-06-01 21:45;6,5
2019-06-01 22:00;1,85
2019-06-01 22:15;0
2019-06-01 22:30;0
2019-06-01 22:45;0
2019-06-01 23:00;0,65
2019-06-01 23:15;0,5
2019-06-01 23:30;1,1
2019-06-01 23:45;2,05
2019-06-02 00:00;0,25
2019-06-02 00:15;0,3
2019-06-02 00:30;0
2019-06-02 00:45;0
2019-06-02 01:00;0
2019-06-02 01:15;0
2019-06-02 01:30;0
2019-06-02 01:45;0
2019-06-02 02:00;0
2019-06-02 02:15;0
2019-06-02 02:30;0
2019-06-02 02:45;0
2019-06-02 03:00;0
2019-06-02 03:15;0
2019-06-02 03:30;0
2019-06-02 03:45;0
2019-06-02 04:00;0
2019-06-02 04:15;0
2019-06-02 04:30;0
2019-06-02 04:45;0
2019-06-02 05:00;0
2019-06-02 05:15;0,1
2019-06-02 05:30;0
2019-06-02 05:45;0
2019-06-02 06:00;0
2019-06-02 06:15;0
2019-06-02 06:30;0
2019-06-02 06:45;0,1
2019-06-02 07:00;0
2019-06-02 07:15;0
2019-06-02 07:30;0
2019-06-02 07:45;0
2019-06-02 08:00;0
2019-06-02 08:15;0
2019-06-02 08:30;0
2019-06-02 08:45;0,8
2019-06-02 09:00;0,8
2019-06-02 09:15;0,7
2019-06-02 09:30;0,25
2019-06-02 09:45;1,1
2019-06-02 10:00;0,35
2019-06-02 10:15;0,1
2019-06-02 10:30;0,1
2019-06-02 10:45;0
2019-06-02 11:00;0,05
2019-06-02 11:15;0
2019-06-02 11:30;0,1
2019-06-02 11:45;0,2
2019-06-02 12:00;0,85
2019-06-02 12:15;0
2019-06-02 12:30;0,55
2019-06-02 12:45;0
2019-06-02 13:00;0,1
2019-06-02 13:15;0,2
2019-06-02 13:30;2,55
2019-06-02 13:45;3,5
2019-06-02 14:00;2,95
2019-06-02 14:15;2,2
2019-06-02 14:30;1,25
2019-06-02 14:45;2,9
2019-06-02 15:00;4,15
2019-06-02 15:15;4,3
2019-06-02 15:30;5,45
2019-06-02 15:45;3,55
2019-06-02 16:00;4,65
2019-06-02 16:15;4,5
2019-06-02 16:30;3,85
2019-06-02 16:45;4,35
2019-06-02 17:00;4,55
2019-06-02 17:15;4,6
2019-06-02 17:30;3,8
2019-06-02 17:45;3,45
2019-06-02 18:00;3,15
2019-06-02 18:15;3,1
2019-06-02 18:30;4,3
2019-06-02 18:45;4,3
2019-06-02 19:00;4,8
2019-06-02 19:15;6,05
2019-06-02 19:30;6,5
2019-06-02 19:45;6,45
2019-06-02 20:00;7,95
2019-06-02 20:15;7,8
2019-06-02 20:30;6,9
2019-06-02 20:45;7,5
2019-06-02 21:00;7,95
2019-06-02 21:15;7
2019-06-02 21:30;5,55
2019-06-02 21:45;2,5
2019-06-02 22:00;0,6
2019-06-02 22:15;0,4
2019-06-02 22:30;1,05
2019-06-02 22:45;0,65
2019-06-02 23:00;1,7
2019-06-02 23:15;0,4
2019-06-02 23:30;1,5
2019-06-02 23:45;0,8

